Regional Weather Roundup
Issued by NWS Cleveland, OH

Home | Current Version | Previous Version | Graphics & Text | Print | Product List | Glossary On
Versions: 1 2 3 4 5 6 7 8 9 10 11 12 13 14 15 16 17 18 19 20 21 22 23 24 25 26 27 28 29 30 31 32 33 34 35 36 37 38 39 40 41 42 43 44 45 46 47 48 49 50
000
ASUS41 KCLE 232300
RWRCLE
OHIO REGIONAL WEATHER ROUNDUP
NATIONAL WEATHER SERVICE WILMINGTON, OH
700 PM EDT WED APR 23 2014

NOTE: "FAIR" INDICATES FEW OR NO CLOUDS BELOW 12,000 FEET WITH NO
SIGNIFICANT WEATHER AND/OR OBSTRUCTIONS TO VISIBILITY.

OHZ001>008-015>018-024>027-034-035-043-044-240000-
   NORTHWEST OHIO

CITY           SKY/WX    TMP DP  RH WIND       PRES   REMARKS
DEFIANCE       SUNNY     58  22  24 NE5       30.07S
FINDLAY        SUNNY     55  28  35 N9        30.06S
TOLEDO EXPRESS SUNNY     55  19  24 NE8       30.07S
TOLEDO METCALF SUNNY     54  27  35 E8        30.08S
LIMA           SUNNY     56  30  37 N7        30.06S
$$

OHZ009>014-019>023-028>033-038-089-240000-
   NORTHEAST OHIO

CITY           SKY/WX    TMP DP  RH WIND       PRES   REMARKS
CLE-HOPKINS    MOSUNNY   50  26  39 N9        30.12R
CLE-LAKEFRONT  SUNNY     45  36  70 W12       30.09R
CUY CO. ARPT   MOSUNNY   45  32  61 NW14      30.09S
LORAIN-ELYRIA  SUNNY     51  27  39 N10       30.10S
ASHTABULA      SUNNY     43  17  35 NW14G23   30.07R
AKRON-CANTON   MOSUNNY   48  26  42 N9        30.07R
WOOSTER        NOT AVBL
MANSFIELD      SUNNY     48  31  51 N9        30.09R
YOUNGSTOWN     MOSUNNY   46  16  30 NW17      30.04R
$$

OHZ042-051>053-060>062-070>072-077>081-240000-
  SOUTHWEST OHIO

CITY           SKY/WX    TMP DP  RH WIND       PRES   REMARKS
CINC-COVINGTON MOSUNNY   59  30  33 CALM      30.05S
CINC-LUNKEN    SUNNY     60  34  37 NE6       30.06S
HAMILTON       SUNNY     60  34  37 NW5       30.07S
DAYTON         NOT AVBL
WRIGHT-PAT AFB SUNNY     57  31  37 N6        30.06S
DAYTON GENERAL SUNNY     57  32  38 N6        30.05S
WILMINGTON     SUNNY     57  31  37 NW9       30.05R
$$

OHZ036-037-039>041-045>050-054>059-063>069-073>076-082>088-240000-
  CENTRAL AND SOUTHEAST OHIO

CITY           SKY/WX    TMP DP  RH WIND       PRES   REMARKS
COLUMBUS       SUNNY     56  31  38 N12G20    30.05S
OSU AIRPORT    SUNNY     54  32  43 NE13      30.05S
BOLTON FIELD   SUNNY     55  36  47 N8        30.06S
RICKENBACK AFB NOT AVBL
NEWARK         SUNNY     54  31  41 NW9       30.05S
MARION         SUNNY     51  32  48 NE12      30.07F
LANCASTER      SUNNY     55  32  41 N6        30.06S
ZANESVILLE     SUNNY     53  30  41 NW14      30.05S
NEW PHILLY     MOSUNNY   49  30  48 NW10      30.07S
$$



USA.gov is the U.S. government's official web portal to all federal, state and local government web resources and services.